Location: Petrozavodsk
(61.7857°N, 34.3593°E)
Time: 20:19:44
(UTC+03:00)

Terra - Visible Passes

Search period start: 21 October 2019 00:00
Search period end: 31 October 2019 00:00
Orbit: 701 x 703 km, 98.2° (Epoch: 21 October)

Date Brightness Start Highest point End Pass type
(mag) Time Alt. Az. Time Alt. Az. Time Alt. Az.
21 Oct 4.0 18:57:25 10° NE 18:58:37 11° NNE 18:59:49 10° NNE visible
21 Oct 3.2 20:35:48 25° NNE 20:35:48 25° NNE 20:38:59 10° N visible
21 Oct 3.5 22:14:41 31° NNW 22:14:41 31° NNW 22:17:09 10° NNW visible
21 Oct 4.6 23:53:34 14° NW 23:53:34 14° NW 23:54:26 10° NW visible
22 Oct 3.7 19:40:16 15° NE 19:40:41 16° NE 19:43:27 10° N visible
22 Oct 3.2 21:19:10 31° NNE 21:19:10 31° NNE 21:21:59 10° NNW visible
22 Oct 4.1 22:58:03 22° NW 22:58:03 22° NW 22:59:54 10° NNW visible
23 Oct 3.4 20:23:39 22° NNE 20:23:39 22° NNE 20:26:40 10° N visible
23 Oct 3.5 22:02:32 30° NNW 22:02:32 30° NNW 22:04:55 10° NNW visible
23 Oct 4.5 23:41:25 14° NW 23:41:25 14° NW 23:42:23 10° NW visible
24 Oct 3.8 19:28:08 14° NE 19:28:40 14° NE 19:31:05 10° N visible
24 Oct 3.3 21:07:01 28° NNE 21:07:01 28° NNE 21:09:44 10° N visible
24 Oct 4.1 22:45:55 22° NNW 22:45:55 22° NNW 22:47:42 10° NNW visible
25 Oct 3.5 20:11:30 20° NNE 20:11:30 20° NNE 20:14:21 10° N visible
25 Oct 3.5 21:50:23 28° N 21:50:23 28° N 21:52:40 10° NNW visible
25 Oct 4.5 23:29:17 15° NW 23:29:17 15° NW 23:30:18 10° NNW visible
26 Oct 3.9 19:15:59 12° NE 19:16:39 13° NNE 19:18:39 10° N visible
26 Oct 3.4 20:54:52 26° NNE 20:54:52 26° NNE 20:57:27 10° N visible
26 Oct 4.0 22:33:46 22° NNW 22:33:46 22° NNW 22:35:31 10° NNW visible
27 Oct 3.6 19:59:21 18° NNE 19:59:21 18° NNE 20:02:02 10° N visible
27 Oct 3.6 21:38:14 26° N 21:38:14 26° N 21:40:26 10° NNW visible
27 Oct 4.5 23:17:08 16° NW 23:17:08 16° NW 23:18:10 10° NNW visible
28 Oct 3.9 19:03:50 11° NE 19:04:40 11° NNE 19:06:11 10° N visible
28 Oct 3.5 20:42:44 23° NNE 20:42:44 23° NNE 20:45:10 10° N visible
28 Oct 4.0 22:21:37 22° NNW 22:21:37 22° NNW 22:23:19 10° NNW visible
29 Oct 3.7 19:47:12 16° NNE 19:47:12 16° NNE 19:49:41 10° N visible
29 Oct 3.7 21:26:06 25° N 21:26:06 25° N 21:28:11 10° NNW visible
29 Oct 4.5 23:04:59 16° NNW 23:04:59 16° NNW 23:06:01 10° NNW visible
30 Oct 4.0 18:51:52 10° NE 18:52:40 10° NNE 18:53:28 10° NNE visible
30 Oct 3.6 20:30:34 21° NNE 20:30:34 21° NNE 20:32:53 10° N visible
30 Oct 4.0 22:09:28 21° NNW 22:09:28 21° NNW 22:11:06 10° NNW visible
30 Oct 4.9 23:48:21 11° NW 23:48:21 11° NW 23:48:28 10° NW visible
